Regional Weather Roundup
Issued by NWS San Diego, CA

Home | Current Version | Previous Version | Text Only | Print | Product List | Glossary On
Versions: 1 2 3 4 5 6 7 8 9 10 11 12 13 14 15 16 17 18 19 20 21 22 23 24 25 26 27
000
ASUS46 KSGX 082011
RWRSGX

SAN DIEGO HOURLY WEATHER ROUNDUP
NATIONAL WEATHER SERVICE SAN DIEGO CA
1200 PM PST THU DEC 08 2016

NOTE: "FAIR" INDICATES FEW OR NO CLOUDS BELOW 12,000 FEET WITH NO
SIGNIFICANT WEATHER AND/OR OBSTRUCTIONS TO VISIBILITY.

CAZ042-043-060-061-PZZ750-775-082100-

GREATER SAN DIEGO AREA

CITY           SKY/WX    TMP DP  RH WIND       PRES   REMARKS
SAN DIEGO AP   MOSUNNY   65  44  46 NW9       30.24F
NATIONAL CITY    N/A     64  53  67 SW3       30.23F
CHULA VISTA      N/A     66  53  63 W8        30.15F
IMPERIAL BEACH MOSUNNY   64  48  56 NW9       30.23F
BROWN FIELD    SUNNY     67  43  41 VRB6      30.21F
MIRAMAR MCAS   SUNNY     68  45  43 NW8       30.22F
MONTGOMERY FLD SUNNY     67  43  41 W7        30.22F

$$

NORTH SAN DIEGO COUNTY

CITY           SKY/WX    TMP DP  RH WIND       PRES   REMARKS
CAMP PENDLETON MOSUNNY   65  51  60 W7        30.21F
OCEANSIDE AP   SUNNY     64  52  64 W9        30.21F
OCEANSIDE HBR    N/A     60  54  80 W5        30.25F
VISTA            N/A     63  46  54 W1        30.21F
CARLSBAD       SUNNY     62  48  60 W9        30.21F
DEL MAR          N/A     64  52  64 CALM      30.25F
LA JOLLA SCRIP   N/A     59  48  66 W2        30.23F
FALLBROOK        N/A     67  46  47 SW5       30.20F
ESCONDIDO        N/A     67  43  42 W8        30.23F
SAN MARCOS       N/A     65  43  44 W8        30.24F
POWAY            N/A     67  46  47 SW3       30.25F

$$

EAST SAN DIEGO COUNTY

CITY           SKY/WX    TMP DP  RH WIND       PRES   REMARKS
RAMONA         SUNNY     65  39  38 W9        30.21F
SANTEE LAKES     N/A     68  47  45 CALM      30.21F
LA MESA          N/A     64  43  46 CALM      30.16F
JAMUL            N/A     65  43  44 CALM      30.24F
DESCANSO N       N/A     57  37  46 W5        30.23F
CAMPO            N/A     62  36  37 S13       30.17F

$$

ORANGE COUNTY AND THE LOS ANGELES BASIN

CITY           SKY/WX    TMP DP  RH WIND       PRES   REMARKS
JOHN WAYNE AP  MOSUNNY   64  50  60 W6        30.23F
LAGUNA BEACH     N/A     62  55  76 SW2       30.19F
LAKE FOREST FR   N/A     65  43  45 W5        30.13F
HUNTINGTON BCH   N/A     64  53  67 SW3       30.25F
LOS ALAMITOS   MOSUNNY   65  48  55 SW6       30.23F
FULLERTON      SUNNY     66  43  43 VRB3      30.22F
LONG BEACH     SUNNY     64  47  53 VRB6      30.23F
L.A. AP        PTSUNNY   63  46  54 W12       30.23F
L.A. DOWNTOWN  SUNNY     65  43  44 S3        30.22F

$$

THE INLAND EMPIRE

CITY           SKY/WX    TMP DP  RH WIND       PRES   REMARKS
CORONA         SUNNY     65  46  50 VRB5      30.22F
CHINO          MOSUNNY   65  44  46 NW3       30.23F
ONTARIO        MOSUNNY   61  41  47 SW5       30.22F
SAN BERNARDINO FAIR      64  37  36 CALM      30.23F
RIVERSIDE AP   MOSUNNY   64  40  41 W5        30.22F
MORENO VALLEY    N/A     63  47  55 W2        28.34F
MARCH ARB      SUNNY     61  42  48 VRB3      30.22F
HORSETHIEF CYN   N/A     64  38  38 NW3       30.26F
PERRIS           N/A     60  43  52 E2        30.27F
HEMET EAST       N/A     60  25  26 CALM      30.29F
FRENCH VALLEY  NOT AVBL
TEMECULA         N/A     63  44  50 N1        30.26F

$$

SAN BERNARDINO AND RIVERSIDE COUNTY MOUNTAINS

CITY           SKY/WX    TMP DP  RH WIND       PRES   REMARKS
BIG BEAR AP    PTSUNNY   46  37  71 W13       30.29F
ANGELUS OAKS     N/A     52  40  64 CALM      30.19F
PINE COVE        N/A     48  36  63 NW2       30.26F

$$

SOUTHERN DESERT INCLUDING THE COACHELLA VALLEY

CITY           SKY/WX    TMP DP  RH WIND       PRES   REMARKS
PALM SPRINGS   SUNNY     65  23  20 SE7       30.23F
PALM DESERT      N/A     66  28  23 CALM        N/A
THERMAL        SUNNY     66  23  19 CALM      30.21F
BLYTHE         SUNNY     61   9  12 CALM      30.24F
IMPERIAL AP    MOSUNNY   66  22  18 CALM      30.22F
EL CENTRO NAS  MOSUNNY   67  17  14 NE5       30.23F
YUMA AZ        SUNNY     66  14  13 N7        30.22
MEXICALI       SUNNY     66  12  12 NW8       30.23F

$$

UPPER DESERT

CITY           SKY/WX    TMP DP  RH WIND       PRES   REMARKS
VICTORVILLE AP SUNNY     57  27  30 CALM      30.22F
HESPERIA         N/A     59  31  34 SE2       30.40F
PALMDALE       SUNNY     61  28  28 N5        30.21F
EDWARDS AFB    PTSUNNY   52  24  33 CALM      30.19F
DAGGETT        SUNNY     53  13  20 E5        30.23F
29 PALMS N     MOSUNNY   56   9  15 SE6       30.29F

$$

REGIONAL REPORTS

CITY           SKY/WX    TMP DP  RH WIND       PRES   REMARKS
SANTA BARBARA  CLOUDY    62  52  69 W9        30.24F
SANDBERG       MOSUNNY   57  30  35 S8        30.25F
LAS VEGAS NV   NOT AVBL
PHOENIX AZ     SUNNY     62  39  42 W3        30.19F
TIJUANA        SUNNY     64  37  36 W6        30.24F
ENSENADA NW      N/A     63  32  31 SW1       30.19F

$$

OFFSHORE ISLANDS

CITY           SKY/WX    TMP DP  RH WIND       PRES   REMARKS
CATALINA ARPT  SUNNY     58  47  66 W9        30.24F
SAN CLEMENTE I MOSUNNY   61  51  70 W10       30.26F
SAN NICOLAS IS MOSUNNY   63  52  67 W15       30.25F

$$

MARINE AND OFFSHORE BUOY REPORTS

STATION/POSITION SKY/WX   TEMP    WIND        PRES    SWELL
                          AIR SEA DIR/SP/G            HT/PER/DIR
                          (F)     (DEG/KT/KT) (MB)    (FT/S/D)
TANNER BANKS               59 62  290/ 10/ 12 1024.7F   3/330/11
S CLEMENTE BASIN           60 62  310/  8/  8 1023.9F   3/270/16
SAN NICOLAS IS.               59                N/A     2/270/13
SO. S. ROSA ISLA           58 58  240/  4/  6 1024.6F   3/220/16
W. S. BARBARA CH           57 56  170/  6/  6 1024.3F   2/210/16
M. S. BARBARA CH                  260/  6/  8 1024.7F
S. MONICA BASIN            59 60  270/ 10/ 12 1024.2F   2/160/16
S PEDRO CHANNEL               61                N/A     2/270/13
CMP PENDLETON NS              61                N/A     2/220/15
OCEANSIDE OFFSHR              62                N/A     2/210/15
TORREY PINES OTR              62                N/A     2/220/15
POINT LOMA SOUTH              62                N/A     2/230/15

$$





USA.gov is the U.S. government's official web portal to all federal, state and local government web resources and services.